Eagle River, WI

1:54 PM CDT on June 28, 2017 (GMT -0500)
Eagle River Union

Weather History for KEGV - November, 2014

Change the Weather History Date:

Saturday, November 22, 2014

  Actual Average Record
Temperature  
Mean Temperature 30 °F -  
Max Temperature 34 °F 34 °F 59 °F (2012)
Min Temperature 25 °F 21 °F -6 °F (2008)
Degree Days  
Heating Degree Days 36    
Moisture  
Dew Point 30 °F    
Average Humidity 93    
Maximum Humidity 100    
Minimum Humidity 69    
Precipitation  
Precipitation 0.05 in - - ()
Sea Level Pressure  
Sea Level Pressure 29.72 in    
Wind  
Wind Speed 10 mph (SW)    
Max Wind Speed 14 mph    
Max Gust Speed 23 mph    
Visibility 4 miles    
Events      
Averages and records for this station are not official NWS values.
T = Trace of Precipitation, MM = Missing Value Source: NWS Daily Summary

Daily Weather History Graph

Daily Weather History Graph

Search for Another Location

Airport or City:

Trip Planner

Search our weather history database for the weather conditions in past years. The results will help you decide how hot, cold, wet, or windy it might be!

Date:

Astronomy

Nov. 22, 2014 Rise Set
Actual Time 7:06 AM CST 4:19 PM CST
Civil Twilight 6:33 AM CST 4:52 PM CST
Nautical Twilight 5:57 AM CST 5:28 PM CST
Astronomical Twilight 5:21 AM CST 6:04 PM CST
Moon 7:01 AM CST (11/22) 4:51 PM CST (11/22)
Length of Visible Light 10h 18m
Length of Day
9h 12m
New Moon, 0% of the Moon is Illuminated
Nov 22
New Moon
Nov 29
First Quarter
Dec 6
Full
Dec 14
Last Quarter
Dec 21
New

Hourly Weather History & Observations

Time (CST) Temp. Windchill Dew Point Humidity Pressure Visibility Wind Dir Wind Speed Gust Speed Precip Events Conditions
12:10 AM 25.5 °F 14.9 °F 16.7 °F 69% 29.83 in 10.0 mi SW 11.5 mph 17.3 mph N/A   Clear
12:35 AM 25.7 °F 15.1 °F 17.4 °F 71% 29.82 in 10.0 mi SSW 11.5 mph 20.7 mph N/A   Scattered Clouds
12:55 AM 26.2 °F 15.8 °F 18.3 °F 72% 29.82 in 10.0 mi SW 11.5 mph 18.4 mph N/A   Overcast
1:15 AM 27.0 °F 18.0 °F 19.8 °F 74% 29.82 in 10.0 mi SW 9.2 mph 16.1 mph N/A   Overcast
1:35 AM 27.5 °F 17.4 °F 21.0 °F 77% 29.82 in 10.0 mi SW 11.5 mph 19.6 mph N/A   Overcast
1:55 AM 28.0 °F 18.1 °F 21.9 °F 78% 29.81 in 10.0 mi SW 11.5 mph 17.3 mph N/A   Overcast
2:15 AM 28.0 °F 17.5 °F 21.9 °F 78% 29.81 in 10.0 mi SW 12.7 mph - N/A   Overcast
2:35 AM 28.2 °F 18.3 °F 22.5 °F 79% 29.80 in 7.0 mi SW 11.5 mph 20.7 mph N/A   Overcast
2:55 AM 28.4 °F 18.0 °F 23.2 °F 81% 29.79 in 7.0 mi SW 12.7 mph 23.0 mph N/A   Overcast
3:15 AM 28.4 °F 17.5 °F 23.7 °F 83% 29.78 in 7.0 mi SW 13.8 mph 23.0 mph N/A   Overcast
3:35 AM 28.8 °F 19.0 °F 23.9 °F 82% 29.78 in 7.0 mi SW 11.5 mph 21.9 mph N/A   Overcast
3:50 AM 28.8 °F 19.5 °F 23.9 °F 82% 29.77 in 5.0 mi SW 10.4 mph 18.4 mph N/A   Haze
4:15 AM 28.9 °F 19.8 °F 24.4 °F 83% 29.77 in 5.0 mi SW 10.4 mph - N/A   Haze
4:30 AM 28.9 °F 18.2 °F 24.6 °F 84% 29.77 in 5.0 mi SW 13.8 mph - N/A   Overcast
4:55 AM 29.3 °F 19.6 °F 25.3 °F 85% 29.76 in 5.0 mi SW 11.5 mph 17.3 mph N/A   Overcast
5:15 AM 29.3 °F 19.1 °F 25.7 °F 86% 29.76 in 5.0 mi SW 12.7 mph 18.4 mph N/A   Overcast
5:32 AM 28.4 °F 18.0 °F 26.6 °F 93% 29.76 in 4.0 mi SW 12.7 mph - N/A   Overcast
5:55 AM 29.8 °F 20.3 °F 27.7 °F 92% 29.75 in 4.0 mi SW 11.5 mph 16.1 mph N/A   Overcast
6:10 AM 29.8 °F 20.3 °F 28.4 °F 94% 29.75 in 3.0 mi SW 11.5 mph 16.1 mph N/A   Overcast
6:35 AM 30.0 °F 20.5 °F 29.1 °F 96% 29.75 in 3.0 mi SW 11.5 mph - N/A   Overcast
6:55 AM 30.2 °F 20.8 °F 29.8 °F 99% 29.75 in 2.0 mi SW 11.5 mph 16.1 mph N/A   Overcast
7:15 AM 30.4 °F 20.5 °F 30.0 °F 99% 29.74 in 1.8 mi SW 12.7 mph 19.6 mph N/A   Overcast
7:35 AM 30.7 °F 22.0 °F 30.2 °F 98% 29.74 in 1.8 mi SW 10.4 mph 18.4 mph N/A   Overcast
7:55 AM 30.9 °F 21.2 °F 30.6 °F 99% 29.74 in 1.8 mi SW 12.7 mph 18.4 mph N/A   Overcast
8:15 AM 31.1 °F 20.9 °F 30.7 °F 99% 29.73 in 1.8 mi SW 13.8 mph - N/A   Overcast
8:35 AM 31.1 °F 22.4 °F 30.9 °F 99% 29.73 in 1.5 mi SW 10.4 mph 19.6 mph N/A   Overcast
8:55 AM 31.5 °F 21.8 °F 31.1 °F 99% 29.73 in 1.5 mi SW 12.7 mph 20.7 mph N/A   Overcast
9:15 AM 31.8 °F 23.3 °F 31.1 °F 97% 29.72 in 1.8 mi SW 10.4 mph - N/A   Overcast
9:30 AM 31.8 °F 23.3 °F 31.1 °F 97% 29.73 in 1.8 mi SW 10.4 mph - N/A   Overcast
9:50 AM 32.0 °F 22.5 °F 31.3 °F 97% 29.73 in 1.8 mi SW 12.7 mph 18.4 mph N/A   Overcast
9:52 AM 32.0 °F 22.1 °F 30.2 °F 93% 29.73 in 1.8 mi WSW 13.8 mph 18.4 mph N/A   Overcast
10:15 AM 32.0 °F 23.0 °F 31.5 °F 98% 29.73 in 2.0 mi SW 11.5 mph - N/A   Overcast
10:35 AM 32.0 °F 24.2 °F 31.5 °F 98% 29.72 in 2.0 mi SW 9.2 mph - N/A   Overcast
10:50 AM 32.0 °F 23.0 °F 31.5 °F 98% 29.72 in 2.5 mi SW 11.5 mph - N/A   Overcast
11:15 AM 32.0 °F 24.2 °F 31.3 °F 97% 29.71 in 3.0 mi SW 9.2 mph - N/A   Overcast
11:35 AM 32.0 °F 24.2 °F 31.5 °F 98% 29.71 in 3.0 mi WSW 9.2 mph - N/A   Overcast
11:55 AM 32.4 °F 24.0 °F 31.3 °F 96% 29.70 in 4.0 mi SW 10.4 mph - 0.01 in   Overcast
12:15 PM 32.4 °F 24.6 °F 31.3 °F 96% 29.69 in 4.0 mi SW 9.2 mph - N/A   Overcast
12:32 PM 33.8 °F 25.8 °F 30.2 °F 87% 29.69 in 4.0 mi SW 10.4 mph - N/A   Overcast
12:35 PM 32.5 °F 23.7 °F 31.3 °F 95% 29.69 in 4.0 mi WSW 11.5 mph - N/A   Overcast
12:55 PM 32.9 °F 23.7 °F 31.5 °F 94% 29.69 in 4.0 mi SW 12.7 mph 16.1 mph N/A   Overcast
1:10 PM 32.9 °F 24.7 °F 31.8 °F 96% 29.69 in 4.0 mi SW 10.4 mph - N/A   Overcast
1:55 PM 32.9 °F 25.9 °F 32.0 °F 96% 29.69 in 4.0 mi SW 8.1 mph - N/A   Overcast
2:15 PM 32.9 °F 26.7 °F 31.8 °F 96% 29.69 in 4.0 mi SW 6.9 mph - N/A   Overcast
2:30 PM 32.9 °F 25.9 °F 31.8 °F 96% 29.69 in 5.0 mi SW 8.1 mph - N/A   Overcast
3:00 PM 32.9 °F 25.3 °F 31.8 °F 96% 29.69 in 5.0 mi WSW 9.2 mph - N/A   Overcast
3:15 PM 32.9 °F 28.5 °F 31.8 °F 96% 29.69 in 5.0 mi SW 4.6 mph - N/A   Overcast
3:35 PM 32.9 °F 27.5 °F 31.8 °F 96% 29.69 in 5.0 mi SW 5.8 mph - N/A   Overcast
3:55 PM 32.9 °F 24.7 °F 31.8 °F 96% 29.69 in 5.0 mi SW 10.4 mph - N/A   Overcast
4:10 PM 32.9 °F 27.5 °F 31.8 °F 96% 29.69 in 5.0 mi SSW 5.8 mph - N/A   Overcast
4:35 PM 32.9 °F 28.5 °F 31.8 °F 96% 29.69 in 5.0 mi SW 4.6 mph - N/A   Overcast
4:55 PM 32.5 °F 28.1 °F 32.0 °F 98% 29.69 in 7.0 mi SSW 4.6 mph - N/A   Overcast
5:20 PM 32.5 °F 29.3 °F 31.8 °F 97% 29.69 in 7.0 mi SW 3.5 mph - N/A   Overcast
5:35 PM 32.4 °F 27.9 °F 31.8 °F 98% 29.69 in 7.0 mi SSW 4.6 mph - N/A   Overcast
5:55 PM 32.2 °F 27.7 °F 32.0 °F 99% 29.69 in 7.0 mi SSW 4.6 mph - N/A   Overcast
6:15 PM 32.2 °F - 32.0 °F 99% 29.69 in 7.0 mi Calm Calm - N/A   Overcast
6:35 PM 32.2 °F - 32.0 °F 99% 29.68 in 5.0 mi Calm Calm - N/A   Overcast
6:55 PM 32.2 °F - 32.0 °F 99% 29.67 in 5.0 mi Calm Calm - N/A   Overcast
7:15 PM 32.2 °F 27.7 °F 32.0 °F 99% 29.68 in 5.0 mi SW 4.6 mph - N/A   Overcast
7:35 PM 32.4 °F - 32.0 °F 99% 29.67 in 4.0 mi Calm Calm - N/A   Overcast
7:55 PM 32.4 °F - 32.2 °F 99% 29.67 in 3.0 mi Calm Calm - N/A   Overcast
8:20 PM 32.9 °F 28.5 °F 32.9 °F 100% 29.68 in 1.5 mi SSW 4.6 mph - N/A   Overcast
8:35 PM 32.9 °F 29.8 °F 32.9 °F 100% 29.68 in 1.5 mi SSW 3.5 mph - N/A   Overcast
8:55 PM 33.1 °F 27.7 °F 33.1 °F 100% 29.67 in 1.5 mi SSW 5.8 mph - N/A   Overcast
9:15 PM 33.4 °F 28.1 °F 33.4 °F 100% 29.68 in 1.8 mi SW 5.8 mph - N/A   Overcast
9:35 PM 33.8 °F 29.6 °F 33.8 °F 100% 29.67 in 1.8 mi SSW 4.6 mph - N/A   Overcast
9:50 PM 33.8 °F 29.6 °F 33.8 °F 100% 29.67 in 1.5 mi South 4.6 mph - 0.01 in   Overcast
10:15 PM 33.8 °F 27.7 °F 33.8 °F 100% 29.67 in 2.5 mi SSW 6.9 mph - N/A   Overcast
10:35 PM 34.0 °F 27.2 °F 34.0 °F 100% 29.67 in 2.5 mi South 8.1 mph - 0.01 in   Overcast
10:50 PM 33.8 °F 30.8 °F 33.8 °F 100% 29.67 in 1.8 mi South 3.5 mph - 0.01 in   Overcast
11:15 PM 33.8 °F - 33.8 °F 100% 29.67 in 1.0 mi Calm Calm - 0.01 in   Overcast
11:35 PM 34.0 °F 29.8 °F 34.0 °F 100% 29.65 in 0.8 mi SSE 4.6 mph - 0.01 in   Overcast
11:55 PM 33.8 °F 28.6 °F 33.8 °F 100% 29.64 in 0.8 mi SSE 5.8 mph - 0.02 in   Overcast